Time,TemperatureF,DewpointF,PressureIn,WindDirection,WindDirectionDegrees,WindSpeedMPH,WindSpeedGustMPH,Humidity,HourlyPrecipIn,Conditions,Clouds,dailyrainin,SoftwareType,DateUTC
2013-05-02 00:00:00,58.8,53.3,30.27,NE,36,0.0,0.0,82,0.00,CLR,OVC,0.00,WeatherDisplay:10.37,2013-05-02 04:00:00,
2013-05-02 00:05:00,58.6,53.2,30.27,ENE,68,0.0,0.0,82,0.00,CLR,OVC,0.00,WeatherDisplay:10.37,2013-05-02 04:05:00,
2013-05-02 00:10:00,58.6,53.5,30.27,East,88,0.0,0.0,83,0.00,CLR,OVC,0.00,WeatherDisplay:10.37,2013-05-02 04:10:00,
2013-05-02 00:15:00,58.6,53.5,30.27,East,85,0.0,0.0,83,0.00,CLR,OVC,0.00,WeatherDisplay:10.37,2013-05-02 04:15:00,
2013-05-02 00:20:00,58.5,53.3,30.27,NE,53,0.0,0.0,83,0.00,CLR,OVC,0.00,WeatherDisplay:10.37,2013-05-02 04:20:00,
2013-05-02 00:25:00,58.5,53.3,30.27,NE,54,0.0,0.0,83,0.00,CLR,OVC,0.00,WeatherDisplay:10.37,2013-05-02 04:25:00,
2013-05-02 00:30:00,58.5,53.3,30.27,ENE,63,0.0,0.0,83,0.00,CLR,OVC,0.00,WeatherDisplay:10.37,2013-05-02 04:30:00,
2013-05-02 00:35:00,58.5,53.6,30.27,East,80,0.0,0.0,84,0.00,CLR,OVC,0.00,WeatherDisplay:10.37,2013-05-02 04:35:00,
2013-05-02 00:40:00,58.4,53.6,30.27,East,86,0.0,0.0,84,0.00,CLR,OVC,0.00,WeatherDisplay:10.37,2013-05-02 04:40:00,
2013-05-02 00:45:00,58.3,53.5,30.27,ENE,74,0.0,0.0,84,0.00,CLR,OVC,0.00,WeatherDisplay:10.37,2013-05-02 04:45:00,
2013-05-02 00:50:00,58.3,53.5,30.27,NE,55,0.0,0.0,84,0.00,CLR,OVC,0.00,WeatherDisplay:10.37,2013-05-02 04:50:00,
2013-05-02 00:55:00,58.3,53.5,30.27,ENE,64,0.0,0.0,84,0.04,RA,OVC,0.04,WeatherDisplay:10.37,2013-05-02 04:55:00,
2013-05-02 01:00:00,58.3,53.5,30.27,NE,52,0.0,0.0,84,0.00,RA,OVC,0.04,WeatherDisplay:10.37,2013-05-02 05:00:00,
2013-05-02 01:05:00,58.3,53.5,30.27,NE,43,0.0,0.0,84,0.00,CLR,OVC,0.04,WeatherDisplay:10.37,2013-05-02 05:05:00,
2013-05-02 01:10:00,58.3,53.5,30.27,East,100,0.0,0.0,84,0.00,CLR,OVC,0.04,WeatherDisplay:10.37,2013-05-02 05:10:00,
2013-05-02 01:15:00,58.3,53.5,30.27,East,98,0.0,0.0,84,0.00,CLR,OVC,0.04,WeatherDisplay:10.37,2013-05-02 05:15:00,
2013-05-02 01:20:00,58.3,53.8,30.27,ENE,67,0.0,0.0,85,0.00,CLR,OVC,0.04,WeatherDisplay:10.37,2013-05-02 05:20:00,
2013-05-02 01:25:00,58.3,53.8,30.24,ENE,62,0.0,4.0,85,0.00,CLR,OVC,0.04,WeatherDisplay:10.37,2013-05-02 05:25:00,
2013-05-02 01:30:00,58.3,53.8,30.24,ENE,75,0.0,0.0,85,0.00,CLR,OVC,0.04,WeatherDisplay:10.37,2013-05-02 05:30:00,
2013-05-02 01:35:00,58.3,53.8,30.24,ENE,68,0.0,3.0,85,0.00,CLR,OVC,0.04,WeatherDisplay:10.37,2013-05-02 05:35:00,
2013-05-02 01:40:00,58.1,53.9,30.24,ENE,63,0.0,5.0,86,0.00,CLR,OVC,0.04,WeatherDisplay:10.37,2013-05-02 05:40:00,
2013-05-02 01:45:00,58.1,53.9,30.24,East,85,0.0,0.0,86,0.00,CLR,OVC,0.04,WeatherDisplay:10.37,2013-05-02 05:45:00,
2013-05-02 01:50:00,58.1,53.9,30.24,ESE,121,0.0,0.0,86,0.00,CLR,OVC,0.04,WeatherDisplay:10.37,2013-05-02 05:50:00,
2013-05-02 01:55:00,58.1,53.9,30.24,ENE,78,0.0,0.0,86,0.04,RA,OVC,0.08,WeatherDisplay:10.37,2013-05-02 05:55:00,
2013-05-02 02:00:00,58.1,54.2,30.24,NE,50,0.0,3.0,87,0.00,RA,OVC,0.08,WeatherDisplay:10.37,2013-05-02 06:00:00,
2013-05-02 02:05:00,58.1,54.2,30.24,ENE,65,0.0,4.0,87,0.00,CLR,OVC,0.08,WeatherDisplay:10.37,2013-05-02 06:05:00,
2013-05-02 02:10:00,58.1,54.2,30.24,ENE,66,0.0,0.0,87,0.00,CLR,OVC,0.08,WeatherDisplay:10.37,2013-05-02 06:10:00,
2013-05-02 02:15:00,58.1,54.2,30.24,ENE,57,0.0,3.0,87,0.00,CLR,OVC,0.08,WeatherDisplay:10.37,2013-05-02 06:15:00,
2013-05-02 02:20:00,58.3,54.4,30.24,NE,56,0.0,4.0,87,0.00,CLR,OVC,0.08,WeatherDisplay:10.37,2013-05-02 06:20:00,
2013-05-02 02:25:00,58.3,54.4,30.24,ENE,65,0.0,0.0,87,0.00,CLR,OVC,0.08,WeatherDisplay:10.37,2013-05-02 06:25:00,
2013-05-02 02:30:00,58.3,54.4,30.24,East,81,0.0,3.0,87,0.00,CLR,OVC,0.08,WeatherDisplay:10.37,2013-05-02 06:30:00,
2013-05-02 02:35:00,58.3,54.4,30.24,East,79,0.0,3.0,87,0.00,CLR,OVC,0.08,WeatherDisplay:10.37,2013-05-02 06:35:00,
2013-05-02 02:40:00,58.3,54.4,30.24,NE,50,0.0,0.0,87,0.00,CLR,OVC,0.08,WeatherDisplay:10.37,2013-05-02 06:40:00,
2013-05-02 02:45:00,58.3,54.4,30.24,NNE,23,0.0,0.0,87,0.00,CLR,OVC,0.08,WeatherDisplay:10.37,2013-05-02 06:45:00,
2013-05-02 02:50:00,58.3,54.4,30.24,NE,37,0.0,3.0,87,0.00,CLR,OVC,0.08,WeatherDisplay:10.37,2013-05-02 06:50:00,
2013-05-02 02:55:00,58.3,54.7,30.24,NE,39,0.0,0.0,88,0.04,RA,OVC,0.12,WeatherDisplay:10.37,2013-05-02 06:55:00,
2013-05-02 03:00:00,58.3,54.7,30.24,ENE,58,0.0,0.0,88,0.00,RA,OVC,0.12,WeatherDisplay:10.37,2013-05-02 07:00:00,
2013-05-02 03:05:00,58.3,54.7,30.24,East,81,0.0,0.0,88,0.00,,OVC,0.12,WeatherDisplay:10.37,2013-05-02 07:05:00,
2013-05-02 03:10:00,58.3,54.7,30.24,ENE,66,0.0,5.0,88,0.00,CLR,OVC,0.12,WeatherDisplay:10.37,2013-05-02 07:10:00,
2013-05-02 03:15:00,58.3,54.7,30.24,ENE,65,0.0,0.0,88,0.00,CLR,OVC,0.12,WeatherDisplay:10.37,2013-05-02 07:15:00,
2013-05-02 03:25:00,58.3,54.7,30.24,ENE,75,0.0,5.0,88,0.00,CLR,OVC,0.12,WeatherDisplay:10.37,2013-05-02 07:25:00,
2013-05-02 03:30:00,58.3,54.7,30.24,NE,54,0.0,5.0,88,0.00,CLR,OVC,0.12,WeatherDisplay:10.37,2013-05-02 07:30:00,
2013-05-02 03:35:00,58.3,55.1,30.24,ENE,57,0.0,0.0,89,0.00,CLR,OVC,0.12,WeatherDisplay:10.37,2013-05-02 07:35:00,
2013-05-02 03:40:00,58.3,55.1,30.24,ENE,62,0.0,0.0,89,0.00,CLR,OVC,0.12,WeatherDisplay:10.37,2013-05-02 07:40:00,
2013-05-02 03:45:00,58.3,55.1,30.24,ENE,73,0.0,6.0,89,0.00,CLR,OVC,0.12,WeatherDisplay:10.37,2013-05-02 07:45:00,
2013-05-02 03:50:00,58.3,55.1,30.24,ENE,71,0.0,5.0,89,0.00,CLR,OVC,0.12,WeatherDisplay:10.37,2013-05-02 07:50:00,
2013-05-02 03:55:00,58.3,55.1,30.24,ESE,102,0.0,8.0,89,0.00,CLR,OVC,0.12,WeatherDisplay:10.37,2013-05-02 07:55:00,
2013-05-02 04:00:00,58.3,55.1,30.24,East,91,0.0,5.0,89,0.00,CLR,OVC,0.12,WeatherDisplay:10.37,2013-05-02 08:00:00,
2013-05-02 04:05:00,58.3,55.1,30.24,East,88,0.0,5.0,89,0.00,CLR,OVC,0.12,WeatherDisplay:10.37,2013-05-02 08:05:00,
2013-05-02 04:10:00,58.3,55.1,30.24,East,87,0.0,4.0,89,0.00,CLR,OVC,0.12,WeatherDisplay:10.37,2013-05-02 08:10:00,
2013-05-02 04:15:00,58.3,55.1,30.24,NE,52,0.0,5.0,89,0.00,CLR,OVC,0.12,WeatherDisplay:10.37,2013-05-02 08:15:00,
2013-05-02 04:20:00,58.3,55.1,30.24,ENE,60,0.0,5.0,89,0.00,CLR,OVC,0.12,WeatherDisplay:10.37,2013-05-02 08:20:00,
2013-05-02 04:25:00,58.1,54.9,30.24,ENE,78,0.0,6.0,89,0.00,CLR,OVC,0.12,WeatherDisplay:10.37,2013-05-02 08:25:00,
2013-05-02 04:30:00,58.1,54.9,30.24,East,80,0.0,5.0,89,0.00,CLR,OVC,0.12,WeatherDisplay:10.37,2013-05-02 08:30:00,
2013-05-02 04:35:00,58.1,54.9,30.24,ENE,78,0.0,5.0,89,0.00,CLR,OVC,0.12,WeatherDisplay:10.37,2013-05-02 08:35:00,
2013-05-02 04:40:00,58.1,54.9,30.24,East,85,0.0,7.0,89,0.00,CLR,OVC,0.12,WeatherDisplay:10.37,2013-05-02 08:40:00,
2013-05-02 04:50:00,58.1,54.9,30.24,East,84,0.0,0.0,89,0.00,CLR,OVC,0.12,WeatherDisplay:10.37,2013-05-02 08:50:00,
2013-05-02 04:55:00,58.1,54.9,30.24,NE,54,0.0,6.0,89,0.00,CLR,OVC,0.12,WeatherDisplay:10.37,2013-05-02 08:55:00,
2013-05-02 05:00:00,58.1,54.9,30.24,ENE,67,0.0,0.0,89,0.00,CLR,OVC,0.12,WeatherDisplay:10.37,2013-05-02 09:00:00,
2013-05-02 05:05:00,58.1,54.9,30.24,East,96,0.0,4.0,89,0.00,CLR,OVC,0.12,WeatherDisplay:10.37,2013-05-02 09:05:00,
2013-05-02 05:10:00,58.1,54.9,30.24,East,98,0.0,0.0,89,0.00,CLR,OVC,0.12,WeatherDisplay:10.37,2013-05-02 09:10:00,
2013-05-02 05:15:00,58.1,55.2,30.24,East,98,0.0,6.0,90,0.00,CLR,OVC,0.12,WeatherDisplay:10.37,2013-05-02 09:15:00,
2013-05-02 05:20:00,58.1,55.2,30.24,East,92,0.0,5.0,90,0.00,CLR,OVC,0.12,WeatherDisplay:10.37,2013-05-02 09:20:00,
2013-05-02 05:25:00,58.1,55.2,30.24,East,90,0.0,5.0,90,0.00,CLR,OVC,0.12,WeatherDisplay:10.37,2013-05-02 09:25:00,
2013-05-02 05:30:00,58.0,55.1,30.24,East,86,0.0,5.0,90,0.00,CLR,OVC,0.12,WeatherDisplay:10.37,2013-05-02 09:30:00,
2013-05-02 05:35:00,57.9,55.0,30.24,East,83,0.0,9.0,90,0.00,CLR,OVC,0.12,WeatherDisplay:10.37,2013-05-02 09:35:00,
2013-05-02 05:40:00,57.9,55.0,30.24,ENE,74,0.0,7.0,90,0.00,CLR,OVC,0.12,WeatherDisplay:10.37,2013-05-02 09:40:00,
2013-05-02 05:45:00,57.9,55.0,30.24,ENE,71,0.0,5.0,90,0.00,CLR,OVC,0.12,WeatherDisplay:10.37,2013-05-02 09:45:00,
2013-05-02 05:50:00,57.9,55.0,30.24,ENE,73,0.0,6.0,90,0.00,CLR,OVC,0.12,WeatherDisplay:10.37,2013-05-02 09:50:00,
2013-05-02 05:55:00,57.9,55.0,30.24,East,89,0.0,5.0,90,0.00,CLR,OVC,0.12,WeatherDisplay:10.37,2013-05-02 09:55:00,
2013-05-02 06:00:00,57.9,55.0,30.24,ENE,57,0.0,4.0,90,0.00,CLR,OVC,0.12,WeatherDisplay:10.37,2013-05-02 10:00:00,
2013-05-02 06:05:00,57.9,55.0,30.24,ENE,61,0.0,4.0,90,0.00,CLR,OVC,0.12,WeatherDisplay:10.37,2013-05-02 10:05:00,
2013-05-02 06:10:00,57.9,55.0,30.24,East,86,0.0,4.0,90,0.00,CLR,OVC,0.12,WeatherDisplay:10.37,2013-05-02 10:10:00,
2013-05-02 06:15:00,57.9,55.0,30.24,East,88,0.0,5.0,90,0.00,CLR,OVC,0.12,WeatherDisplay:10.37,2013-05-02 10:15:00,
2013-05-02 06:20:00,57.9,55.0,30.24,East,85,0.0,5.0,90,0.00,CLR,OVC,0.12,WeatherDisplay:10.37,2013-05-02 10:20:00,
2013-05-02 06:25:00,57.9,55.0,30.24,ENE,74,0.0,4.0,90,0.00,CLR,OVC,0.12,WeatherDisplay:10.37,2013-05-02 10:25:00,
2013-05-02 06:30:00,57.9,55.0,30.24,East,83,0.0,0.0,90,0.00,CLR,OVC,0.12,WeatherDisplay:10.37,2013-05-02 10:30:00,
2013-05-02 06:35:00,57.9,55.3,30.24,ENE,76,0.0,3.0,91,0.00,CLR,OVC,0.12,WeatherDisplay:10.37,2013-05-02 10:35:00,
2013-05-02 06:40:00,57.9,55.3,30.24,East,83,0.0,6.0,91,0.00,CLR,OVC,0.12,WeatherDisplay:10.37,2013-05-02 10:40:00,
2013-05-02 06:45:00,57.9,55.3,30.24,ENE,72,0.0,3.0,91,0.00,CLR,OVC,0.12,WeatherDisplay:10.37,2013-05-02 10:45:00,
2013-05-02 06:50:00,57.9,55.3,30.24,ENE,74,0.0,5.0,91,0.00,CLR,OVC,0.12,WeatherDisplay:10.37,2013-05-02 10:50:00,
2013-05-02 06:55:00,57.7,55.1,30.24,East,79,0.0,5.0,91,0.00,CLR,OVC,0.12,WeatherDisplay:10.37,2013-05-02 10:55:00,
2013-05-02 07:00:00,57.7,55.1,30.24,East,79,0.0,0.0,91,0.00,CLR,OVC,0.12,WeatherDisplay:10.37,2013-05-02 11:00:00,
2013-05-02 07:05:00,57.7,55.1,30.24,ESE,105,0.0,6.0,91,0.00,CLR,OVC,0.12,WeatherDisplay:10.37,2013-05-02 11:05:00,
2013-05-02 07:10:00,57.9,55.3,30.24,ENE,70,0.0,0.0,91,0.00,CLR,OVC,0.12,WeatherDisplay:10.37,2013-05-02 11:10:00,
2013-05-02 07:15:00,57.9,55.3,30.24,NE,44,0.0,0.0,91,0.00,CLR,OVC,0.12,WeatherDisplay:10.37,2013-05-02 11:15:00,
2013-05-02 07:20:00,57.9,55.3,30.24,ENE,63,0.0,5.0,91,0.00,CLR,OVC,0.12,WeatherDisplay:10.37,2013-05-02 11:20:00,
2013-05-02 07:25:00,57.9,55.3,30.24,East,83,0.0,4.0,91,0.00,CLR,OVC,0.12,WeatherDisplay:10.37,2013-05-02 11:25:00,
2013-05-02 07:30:00,57.9,55.3,30.24,East,82,0.0,3.0,91,0.00,CLR,OVC,0.12,WeatherDisplay:10.37,2013-05-02 11:30:00,
2013-05-02 07:35:00,57.9,55.3,30.24,East,91,0.0,7.0,91,0.00,CLR,OVC,0.12,WeatherDisplay:10.37,2013-05-02 11:35:00,
2013-05-02 07:40:00,57.9,55.3,30.24,NE,49,0.0,0.0,91,0.00,CLR,OVC,0.12,WeatherDisplay:10.37,2013-05-02 11:40:00,
2013-05-02 07:45:00,57.9,55.3,30.24,NNE,32,0.0,5.0,91,0.00,CLR,OVC,0.12,WeatherDisplay:10.37,2013-05-02 11:45:00,
2013-05-02 07:50:00,57.9,55.3,30.24,ENE,70,0.0,5.0,91,0.00,CLR,OVC,0.12,WeatherDisplay:10.37,2013-05-02 11:50:00,
2013-05-02 07:55:00,57.9,55.3,30.27,East,90,0.0,5.0,91,0.00,CLR,OVC,0.12,WeatherDisplay:10.37,2013-05-02 11:55:00,
2013-05-02 08:00:00,58.1,55.5,30.27,East,81,0.0,4.0,91,0.00,CLR,OVC,0.12,WeatherDisplay:10.37,2013-05-02 12:00:00,
2013-05-02 08:05:00,58.1,55.5,30.27,ENE,64,2.0,5.0,91,0.00,CLR,OVC,0.12,WeatherDisplay:10.37,2013-05-02 12:05:00,
2013-05-02 08:10:00,58.1,55.5,30.27,NE,49,0.0,5.0,91,0.00,CLR,OVC,0.12,WeatherDisplay:10.37,2013-05-02 12:10:00,
2013-05-02 08:15:00,58.1,55.5,30.27,NE,44,0.0,0.0,91,0.00,CLR,OVC,0.12,WeatherDisplay:10.37,2013-05-02 12:15:00,
2013-05-02 08:20:00,58.1,55.5,30.27,ENE,65,0.0,5.0,91,0.00,CLR,OVC,0.12,WeatherDisplay:10.37,2013-05-02 12:20:00,
2013-05-02 08:25:00,58.1,55.5,30.27,NE,48,0.0,4.0,91,0.00,CLR,OVC,0.12,WeatherDisplay:10.37,2013-05-02 12:25:00,
2013-05-02 08:30:00,58.1,55.5,30.27,NE,52,0.0,4.0,91,0.00,CLR,OVC,0.12,WeatherDisplay:10.37,2013-05-02 12:30:00,
2013-05-02 08:35:00,58.1,55.5,30.27,ENE,57,0.0,0.0,91,0.00,CLR,OVC,0.12,WeatherDisplay:10.37,2013-05-02 12:35:00,
2013-05-02 08:40:00,58.1,55.5,30.27,NE,35,0.0,3.0,91,0.00,CLR,OVC,0.12,WeatherDisplay:10.37,2013-05-02 12:40:00,
2013-05-02 08:45:00,58.1,55.5,30.27,NE,55,0.0,3.0,91,0.00,CLR,OVC,0.12,WeatherDisplay:10.37,2013-05-02 12:45:00,
2013-05-02 08:50:00,58.1,55.8,30.27,East,93,0.0,7.0,92,0.00,CLR,OVC,0.12,WeatherDisplay:10.37,2013-05-02 12:50:00,
2013-05-02 08:55:00,58.1,55.8,30.27,East,86,0.0,5.0,92,0.00,CLR,OVC,0.12,WeatherDisplay:10.37,2013-05-02 12:55:00,
2013-05-02 09:00:00,58.1,55.8,30.27,ENE,77,0.0,4.0,92,0.00,CLR,OVC,0.12,WeatherDisplay:10.37,2013-05-02 13:00:00,
2013-05-02 09:05:00,58.1,55.8,30.27,East,101,0.0,3.0,92,0.00,CLR,OVC,0.12,WeatherDisplay:10.37,2013-05-02 13:05:00,
2013-05-02 09:10:00,58.1,55.8,30.27,East,92,0.0,8.0,92,0.00,CLR,OVC,0.12,WeatherDisplay:10.37,2013-05-02 13:10:00,
2013-05-02 09:15:00,58.1,55.8,30.27,East,86,0.0,3.0,92,0.00,CLR,OVC,0.12,WeatherDisplay:10.37,2013-05-02 13:15:00,
2013-05-02 09:20:00,58.3,56.0,30.27,ENE,76,0.0,5.0,92,0.00,CLR,OVC,0.12,WeatherDisplay:10.37,2013-05-02 13:20:00,
2013-05-02 09:25:00,58.3,56.0,30.27,ENE,64,0.0,5.0,92,0.00,CLR,OVC,0.12,WeatherDisplay:10.37,2013-05-02 13:25:00,
2013-05-02 09:30:00,58.3,56.0,30.27,ENE,59,0.0,4.0,92,0.00,CLR,OVC,0.12,WeatherDisplay:10.37,2013-05-02 13:30:00,
2013-05-02 09:35:00,58.3,56.0,30.27,ENE,63,0.0,6.0,92,0.00,CLR,OVC,0.12,WeatherDisplay:10.37,2013-05-02 13:35:00,
2013-05-02 09:40:00,58.3,56.0,30.27,ENE,68,0.0,4.0,92,0.00,CLR,OVC,0.12,WeatherDisplay:10.37,2013-05-02 13:40:00,
2013-05-02 09:45:00,58.3,56.0,30.27,NE,49,0.0,4.0,92,0.00,CLR,OVC,0.12,WeatherDisplay:10.37,2013-05-02 13:45:00,
2013-05-02 09:55:00,58.5,56.4,30.27,ENE,70,0.0,3.0,93,0.00,CLR,OVC,0.12,WeatherDisplay:10.37,2013-05-02 13:55:00,
2013-05-02 10:00:00,58.5,56.4,30.27,ENE,70,0.0,0.0,93,0.00,CLR,OVC,0.12,WeatherDisplay:10.37,2013-05-02 14:00:00,
2013-05-02 10:05:00,58.6,56.6,30.27,ENE,68,0.0,6.0,93,0.00,CLR,OVC,0.12,WeatherDisplay:10.37,2013-05-02 14:05:00,
2013-05-02 10:10:00,58.6,56.6,30.27,ENE,72,0.0,6.0,93,0.00,CLR,OVC,0.12,WeatherDisplay:10.37,2013-05-02 14:10:00,
2013-05-02 10:15:00,58.8,56.8,30.27,ENE,64,3.0,8.0,93,0.00,CLR,OVC,0.12,WeatherDisplay:10.37,2013-05-02 14:15:00,
2013-05-02 10:20:00,58.8,56.8,30.27,ENE,66,0.0,4.0,93,0.00,CLR,OVC,0.12,WeatherDisplay:10.37,2013-05-02 14:20:00,
2013-05-02 10:25:00,58.8,56.8,30.27,East,98,0.0,5.0,93,0.00,CLR,OVC,0.12,WeatherDisplay:10.37,2013-05-02 14:25:00,
2013-05-02 10:30:00,59.0,57.0,30.27,East,98,0.0,7.0,93,0.00,CLR,OVC,0.12,WeatherDisplay:10.37,2013-05-02 14:30:00,
2013-05-02 10:35:00,59.0,57.0,30.27,ENE,61,0.0,3.0,93,0.00,CLR,OVC,0.12,WeatherDisplay:10.37,2013-05-02 14:35:00,
2013-05-02 10:40:00,59.0,57.0,30.27,NE,54,0.0,0.0,93,0.00,CLR,OVC,0.12,WeatherDisplay:10.37,2013-05-02 14:40:00,
2013-05-02 10:45:00,59.2,57.2,30.27,North,3,0.0,5.0,93,0.00,CLR,OVC,0.12,WeatherDisplay:10.37,2013-05-02 14:45:00,
2013-05-02 10:50:00,59.2,57.2,30.27,North,8,0.0,5.0,93,0.00,CLR,OVC,0.12,WeatherDisplay:10.37,2013-05-02 14:50:00,
2013-05-02 10:55:00,59.0,57.0,30.27,NE,39,0.0,7.0,93,0.00,CLR,OVC,0.12,WeatherDisplay:10.37,2013-05-02 14:55:00,
2013-05-02 11:00:00,59.0,57.0,30.27,NE,49,0.0,3.0,93,0.00,CLR,OVC,0.12,WeatherDisplay:10.37,2013-05-02 15:00:00,
2013-05-02 11:05:00,59.0,57.0,30.27,NE,52,0.0,7.0,93,0.00,CLR,OVC,0.12,WeatherDisplay:10.37,2013-05-02 15:05:00,
2013-05-02 11:10:00,59.0,57.0,30.27,ENE,72,0.0,3.0,93,0.00,CLR,OVC,0.12,WeatherDisplay:10.37,2013-05-02 15:10:00,
2013-05-02 11:15:00,59.2,57.2,30.27,East,87,0.0,0.0,93,0.00,CLR,OVC,0.12,WeatherDisplay:10.37,2013-05-02 15:15:00,
2013-05-02 11:20:00,59.2,57.2,30.27,East,80,0.0,7.0,93,0.00,CLR,OVC,0.12,WeatherDisplay:10.37,2013-05-02 15:20:00,
2013-05-02 11:25:00,59.2,57.2,30.27,NNW,343,0.0,0.0,93,0.00,CLR,OVC,0.12,WeatherDisplay:10.37,2013-05-02 15:25:00,
2013-05-02 11:30:00,59.4,57.3,30.27,NW,319,0.0,4.0,93,0.00,CLR,OVC,0.12,WeatherDisplay:10.37,2013-05-02 15:30:00,
2013-05-02 11:40:00,59.5,57.5,30.30,NNE,13,0.0,5.0,93,0.00,CLR,OVC,0.12,WeatherDisplay:10.37,2013-05-02 15:40:00,
2013-05-02 11:45:00,59.5,57.5,30.30,ENE,67,0.0,0.0,93,0.00,CLR,OVC,0.12,WeatherDisplay:10.37,2013-05-02 15:45:00,
2013-05-02 11:50:00,59.7,57.7,30.30,East,83,0.0,5.0,93,0.00,CLR,OVC,0.12,WeatherDisplay:10.37,2013-05-02 15:50:00,
2013-05-02 11:55:00,59.7,57.7,30.27,ESE,108,0.0,9.0,93,0.00,CLR,OVC,0.12,WeatherDisplay:10.37,2013-05-02 15:55:00,
2013-05-02 12:00:00,59.7,57.7,30.27,ENE,73,0.0,5.0,93,0.00,CLR,OVC,0.12,WeatherDisplay:10.37,2013-05-02 16:00:00,
2013-05-02 12:05:00,59.7,57.7,30.27,ENE,70,0.0,6.0,93,0.00,CLR,OVC,0.12,WeatherDisplay:10.37,2013-05-02 16:05:00,
2013-05-02 12:10:00,59.9,57.9,30.30,East,81,0.0,5.0,93,0.00,CLR,OVC,0.12,WeatherDisplay:10.37,2013-05-02 16:10:00,
2013-05-02 12:15:00,60.1,58.0,30.30,East,82,0.0,7.0,93,0.00,CLR,OVC,0.12,WeatherDisplay:10.37,2013-05-02 16:15:00,
2013-05-02 12:20:00,60.1,58.0,30.30,ENE,57,0.0,3.0,93,0.00,CLR,OVC,0.12,WeatherDisplay:10.37,2013-05-02 16:20:00,
2013-05-02 12:25:00,60.1,58.0,30.30,NE,34,0.0,3.0,93,0.00,CLR,OVC,0.12,WeatherDisplay:10.37,2013-05-02 16:25:00,
2013-05-02 12:30:00,60.1,58.0,30.30,NE,52,0.0,0.0,93,0.00,CLR,OVC,0.12,WeatherDisplay:10.37,2013-05-02 16:30:00,
2013-05-02 12:35:00,60.1,57.7,30.30,ENE,59,0.0,0.0,92,0.00,CLR,OVC,0.12,WeatherDisplay:10.37,2013-05-02 16:35:00,
2013-05-02 12:40:00,60.1,57.7,30.30,ENE,57,0.0,6.0,92,0.00,CLR,OVC,0.12,WeatherDisplay:10.37,2013-05-02 16:40:00,
2013-05-02 12:45:00,60.1,57.7,30.30,NE,45,0.0,3.0,92,0.00,CLR,OVC,0.12,WeatherDisplay:10.37,2013-05-02 16:45:00,
2013-05-02 12:50:00,60.1,57.7,30.30,NE,37,0.0,5.0,92,0.00,CLR,OVC,0.12,WeatherDisplay:10.37,2013-05-02 16:50:00,
2013-05-02 12:55:00,60.1,57.7,30.30,NE,36,0.0,3.0,92,0.00,CLR,OVC,0.12,WeatherDisplay:10.37,2013-05-02 16:55:00,
2013-05-02 13:00:00,60.1,57.7,30.30,NE,51,0.0,3.0,92,0.00,CLR,OVC,0.12,WeatherDisplay:10.37,2013-05-02 17:00:00,
2013-05-02 13:05:00,60.1,57.4,30.30,ENE,77,0.0,6.0,91,0.00,CLR,OVC,0.12,WeatherDisplay:10.37,2013-05-02 17:05:00,
2013-05-02 13:10:00,60.0,57.4,30.30,ENE,62,0.0,5.0,91,0.00,CLR,OVC,0.12,WeatherDisplay:10.37,2013-05-02 17:10:00,
2013-05-02 13:15:00,59.9,57.3,30.30,NE,56,0.0,7.0,91,0.00,CLR,OVC,0.12,WeatherDisplay:10.37,2013-05-02 17:15:00,
2013-05-02 13:20:00,59.9,57.3,30.30,ENE,72,0.0,0.0,91,0.00,CLR,OVC,0.12,WeatherDisplay:10.37,2013-05-02 17:20:00,
2013-05-02 13:25:00,59.9,57.3,30.27,East,91,0.0,3.0,91,0.00,CLR,OVC,0.12,WeatherDisplay:10.37,2013-05-02 17:25:00,
2013-05-02 13:30:00,59.9,57.3,30.27,ENE,78,2.0,5.0,91,0.00,CLR,OVC,0.12,WeatherDisplay:10.37,2013-05-02 17:30:00,
2013-05-02 13:35:00,60.1,57.4,30.27,NE,50,0.0,4.0,91,0.00,CLR,OVC,0.12,WeatherDisplay:10.37,2013-05-02 17:35:00,
2013-05-02 13:40:00,60.1,57.4,30.27,NNE,32,0.0,3.0,91,0.00,CLR,OVC,0.12,WeatherDisplay:10.37,2013-05-02 17:40:00,
2013-05-02 13:45:00,60.1,57.4,30.27,NE,44,0.0,0.0,91,0.00,CLR,OVC,0.12,WeatherDisplay:10.37,2013-05-02 17:45:00,
2013-05-02 13:50:00,60.1,57.4,30.27,NE,46,0.0,3.0,91,0.00,CLR,OVC,0.12,WeatherDisplay:10.37,2013-05-02 17:50:00,
2013-05-02 13:55:00,60.1,57.4,30.27,ENE,62,0.0,4.0,91,0.00,CLR,OVC,0.12,WeatherDisplay:10.37,2013-05-02 17:55:00,
2013-05-02 14:00:00,60.3,57.6,30.27,East,95,0.0,3.0,91,0.00,CLR,OVC,0.12,WeatherDisplay:10.37,2013-05-02 18:00:00,
2013-05-02 14:05:00,60.3,57.6,30.27,East,82,0.0,3.0,91,0.00,CLR,OVC,0.12,WeatherDisplay:10.37,2013-05-02 18:05:00,
2013-05-02 14:10:00,60.4,57.8,30.27,ENE,68,0.0,3.0,91,0.00,CLR,OVC,0.12,WeatherDisplay:10.37,2013-05-02 18:10:00,
2013-05-02 14:15:00,60.4,57.8,30.27,ENE,73,0.0,0.0,91,0.00,CLR,OVC,0.12,WeatherDisplay:10.37,2013-05-02 18:15:00,
2013-05-02 14:20:00,60.4,57.8,30.27,ENE,78,0.0,4.0,91,0.00,CLR,OVC,0.12,WeatherDisplay:10.37,2013-05-02 18:20:00,
2013-05-02 14:25:00,60.4,57.8,30.27,East,97,0.0,3.0,91,0.00,CLR,OVC,0.12,WeatherDisplay:10.37,2013-05-02 18:25:00,
2013-05-02 14:30:00,60.4,57.8,30.27,NE,47,0.0,5.0,91,0.00,CLR,OVC,0.12,WeatherDisplay:10.37,2013-05-02 18:30:00,
2013-05-02 14:35:00,60.4,57.8,30.27,East,87,0.0,4.0,91,0.00,CLR,OVC,0.12,WeatherDisplay:10.37,2013-05-02 18:35:00,
2013-05-02 14:40:00,60.6,58.0,30.27,South,184,0.0,4.0,91,0.00,CLR,OVC,0.12,WeatherDisplay:10.37,2013-05-02 18:40:00,
2013-05-02 14:45:00,60.6,58.0,30.27,SSE,151,0.0,6.0,91,0.00,CLR,OVC,0.12,WeatherDisplay:10.37,2013-05-02 18:45:00,
2013-05-02 14:50:00,60.6,58.0,30.27,East,91,0.0,0.0,91,0.00,CLR,OVC,0.12,WeatherDisplay:10.37,2013-05-02 18:50:00,
2013-05-02 14:55:00,60.6,58.0,30.27,ENE,70,0.0,3.0,91,0.00,CLR,OVC,0.12,WeatherDisplay:10.37,2013-05-02 18:55:00,
2013-05-02 15:00:00,60.6,58.0,30.27,NE,39,0.0,0.0,91,0.00,CLR,OVC,0.12,WeatherDisplay:10.37,2013-05-02 19:00:00,
2013-05-02 15:05:00,60.6,58.0,30.27,ENE,63,0.0,3.0,91,0.00,CLR,OVC,0.12,WeatherDisplay:10.37,2013-05-02 19:05:00,
2013-05-02 15:10:00,60.8,58.2,30.27,ENE,67,0.0,3.0,91,0.00,CLR,OVC,0.12,WeatherDisplay:10.37,2013-05-02 19:10:00,
2013-05-02 15:15:00,60.8,58.2,30.27,ENE,57,0.0,0.0,91,0.00,CLR,OVC,0.12,WeatherDisplay:10.37,2013-05-02 19:15:00,
2013-05-02 15:20:00,61.1,58.4,30.27,NE,40,0.0,5.0,91,0.00,CLR,OVC,0.12,WeatherDisplay:10.37,2013-05-02 19:20:00,
2013-05-02 15:25:00,61.3,58.7,30.27,NE,44,0.0,0.0,91,0.00,CLR,OVC,0.12,WeatherDisplay:10.37,2013-05-02 19:25:00,
2013-05-02 15:30:00,61.7,59.0,30.27,ENE,60,0.0,5.0,91,0.00,CLR,OVC,0.12,WeatherDisplay:10.37,2013-05-02 19:30:00,
2013-05-02 15:35:00,61.9,59.2,30.27,ENE,69,0.0,3.0,91,0.00,CLR,OVC,0.12,WeatherDisplay:10.37,2013-05-02 19:35:00,
2013-05-02 15:40:00,62.1,59.4,30.27,ENE,75,0.0,3.0,91,0.00,CLR,OVC,0.12,WeatherDisplay:10.37,2013-05-02 19:40:00,
2013-05-02 15:45:00,62.2,59.6,30.27,ENE,73,0.0,0.0,91,0.00,CLR,OVC,0.12,WeatherDisplay:10.37,2013-05-02 19:45:00,
2013-05-02 15:50:00,62.4,59.8,30.27,NNE,33,2.0,6.0,91,0.00,CLR,OVC,0.12,WeatherDisplay:10.37,2013-05-02 19:50:00,
2013-05-02 15:55:00,62.6,59.9,30.24,ENE,74,0.0,5.0,91,0.00,CLR,OVC,0.12,WeatherDisplay:10.37,2013-05-02 19:55:00,
2013-05-02 16:00:00,62.8,59.8,30.24,NE,52,0.0,5.0,90,0.00,CLR,OVC,0.12,WeatherDisplay:10.37,2013-05-02 20:00:00,
2013-05-02 16:05:00,63.0,60.0,30.24,NE,39,0.0,5.0,90,0.00,CLR,OVC,0.12,WeatherDisplay:10.37,2013-05-02 20:05:00,
2013-05-02 16:15:00,63.0,59.7,30.24,East,92,0.0,0.0,89,0.00,CLR,OVC,0.12,WeatherDisplay:10.37,2013-05-02 20:15:00,
2013-05-02 16:20:00,63.1,59.8,30.24,ESE,107,0.0,0.0,89,0.00,CLR,OVC,0.12,WeatherDisplay:10.37,2013-05-02 20:20:00,
2013-05-02 16:25:00,63.3,60.0,30.24,East,90,0.0,3.0,89,0.00,CLR,OVC,0.12,WeatherDisplay:10.37,2013-05-02 20:25:00,
2013-05-02 16:30:00,63.5,60.2,30.24,ENE,65,0.0,5.0,89,0.00,CLR,OVC,0.12,WeatherDisplay:10.37,2013-05-02 20:30:00,
2013-05-02 16:35:00,63.3,60.0,30.24,NNE,14,0.0,3.0,89,0.00,CLR,OVC,0.12,WeatherDisplay:10.37,2013-05-02 20:35:00,
2013-05-02 16:40:00,63.3,59.7,30.24,NE,43,0.0,0.0,88,0.00,CLR,OVC,0.12,WeatherDisplay:10.37,2013-05-02 20:40:00,
2013-05-02 16:45:00,63.1,59.5,30.24,ENE,61,0.0,0.0,88,0.00,CLR,OVC,0.12,WeatherDisplay:10.37,2013-05-02 20:45:00,
2013-05-02 16:50:00,63.1,59.2,30.24,NNE,23,0.0,0.0,87,0.00,CLR,OVC,0.12,WeatherDisplay:10.37,2013-05-02 20:50:00,
2013-05-02 16:55:00,63.0,59.0,30.24,NNW,347,0.0,0.0,87,0.00,CLR,OVC,0.12,WeatherDisplay:10.37,2013-05-02 20:55:00,
2013-05-02 17:00:00,63.0,59.0,30.24,NE,42,0.0,3.0,87,0.00,CLR,OVC,0.12,WeatherDisplay:10.37,2013-05-02 21:00:00,
2013-05-02 17:05:00,63.1,59.2,30.24,NNE,22,0.0,0.0,87,0.00,CLR,OVC,0.12,WeatherDisplay:10.37,2013-05-02 21:05:00,
2013-05-02 17:10:00,63.1,59.2,30.24,North,1,0.0,5.0,87,0.00,CLR,OVC,0.12,WeatherDisplay:10.37,2013-05-02 21:10:00,
2013-05-02 17:15:00,63.2,59.3,30.24,NE,56,0.0,5.0,87,0.00,CLR,OVC,0.12,WeatherDisplay:10.37,2013-05-02 21:15:00,
2013-05-02 17:20:00,63.1,58.9,30.24,ENE,76,0.0,0.0,86,0.00,CLR,OVC,0.12,WeatherDisplay:10.37,2013-05-02 21:20:00,
2013-05-02 17:25:00,63.1,58.9,30.24,NNE,26,0.0,3.0,86,0.00,CLR,OVC,0.12,WeatherDisplay:10.37,2013-05-02 21:25:00,
2013-05-02 17:30:00,63.1,58.6,30.24,NNE,26,0.0,8.0,85,0.00,CLR,OVC,0.12,WeatherDisplay:10.37,2013-05-02 21:30:00,
2013-05-02 17:35:00,63.1,58.6,30.24,ENE,64,0.0,8.0,85,0.00,CLR,OVC,0.12,WeatherDisplay:10.37,2013-05-02 21:35:00,
2013-05-02 17:40:00,63.1,58.2,30.24,East,79,0.0,6.0,84,0.00,CLR,OVC,0.12,WeatherDisplay:10.37,2013-05-02 21:40:00,
2013-05-02 17:45:00,63.1,58.2,30.24,ENE,77,0.0,6.0,84,0.00,CLR,OVC,0.12,WeatherDisplay:10.37,2013-05-02 21:45:00,
2013-05-02 17:50:00,63.1,58.2,30.24,ENE,73,0.0,0.0,84,0.00,CLR,OVC,0.12,WeatherDisplay:10.37,2013-05-02 21:50:00,
2013-05-02 17:55:00,63.1,58.2,30.24,East,87,0.0,5.0,84,0.00,CLR,OVC,0.12,WeatherDisplay:10.37,2013-05-02 21:55:00,
2013-05-02 18:00:00,63.1,58.2,30.24,ENE,76,0.0,3.0,84,0.00,CLR,OVC,0.12,WeatherDisplay:10.37,2013-05-02 22:00:00,
2013-05-02 18:05:00,63.0,57.7,30.24,ENE,67,0.0,0.0,83,0.00,CLR,OVC,0.12,WeatherDisplay:10.37,2013-05-02 22:05:00,
2013-05-02 18:10:00,63.0,57.7,30.21,ENE,61,2.0,5.0,83,0.00,CLR,OVC,0.12,WeatherDisplay:10.37,2013-05-02 22:10:00,
2013-05-02 18:15:00,63.0,57.7,30.21,ENE,64,2.0,5.0,83,0.00,CLR,OVC,0.12,WeatherDisplay:10.37,2013-05-02 22:15:00,
2013-05-02 18:20:00,63.0,57.7,30.21,ENE,65,0.0,3.0,83,0.00,CLR,OVC,0.12,WeatherDisplay:10.37,2013-05-02 22:20:00,
2013-05-02 18:25:00,63.0,57.4,30.21,ENE,66,0.0,0.0,82,0.00,CLR,OVC,0.12,WeatherDisplay:10.37,2013-05-02 22:25:00,
2013-05-02 18:30:00,63.0,57.4,30.21,ENE,77,0.0,9.0,82,0.00,CLR,OVC,0.12,WeatherDisplay:10.37,2013-05-02 22:30:00,
2013-05-02 18:35:00,62.8,57.2,30.21,ENE,78,0.0,0.0,82,0.00,CLR,OVC,0.12,WeatherDisplay:10.37,2013-05-02 22:35:00,
2013-05-02 18:40:00,62.8,57.2,30.21,NNE,21,0.0,0.0,82,0.00,CLR,OVC,0.12,WeatherDisplay:10.37,2013-05-02 22:40:00,
2013-05-02 18:45:00,62.8,56.9,30.21,NNE,16,1.0,14.0,81,0.00,CLR,OVC,0.12,WeatherDisplay:10.37,2013-05-02 22:45:00,
2013-05-02 18:50:00,62.6,56.7,30.21,NE,56,0.0,6.0,81,0.00,CLR,OVC,0.12,WeatherDisplay:10.37,2013-05-02 22:50:00,
2013-05-02 18:55:00,62.6,56.7,30.21,ENE,69,0.0,4.0,81,0.00,CLR,OVC,0.12,WeatherDisplay:10.37,2013-05-02 22:55:00,
2013-05-02 19:00:00,62.4,56.5,30.21,East,95,0.0,5.0,81,0.00,CLR,OVC,0.12,WeatherDisplay:10.37,2013-05-02 23:00:00,
2013-05-02 19:05:00,62.2,56.3,30.21,ENE,71,0.0,5.0,81,0.00,CLR,OVC,0.12,WeatherDisplay:10.37,2013-05-02 23:05:00,
2013-05-02 19:10:00,62.2,56.3,30.21,ENE,67,0.0,5.0,81,0.00,CLR,OVC,0.12,WeatherDisplay:10.37,2013-05-02 23:10:00,
2013-05-02 19:15:00,62.1,55.8,30.21,NE,43,0.0,6.0,80,0.00,CLR,OVC,0.12,WeatherDisplay:10.37,2013-05-02 23:15:00,
2013-05-02 19:20:00,61.9,55.6,30.21,NE,40,0.0,5.0,80,0.00,CLR,OVC,0.12,WeatherDisplay:10.37,2013-05-02 23:20:00,
2013-05-02 19:25:00,61.9,55.6,30.21,ENE,59,0.0,5.0,80,0.00,CLR,OVC,0.12,WeatherDisplay:10.37,2013-05-02 23:25:00,
2013-05-02 19:30:00,61.9,55.6,30.21,NE,51,2.0,6.0,80,0.00,CLR,OVC,0.12,WeatherDisplay:10.37,2013-05-02 23:30:00,
2013-05-02 19:35:00,61.9,55.6,30.21,ENE,66,0.0,5.0,80,0.00,CLR,OVC,0.12,WeatherDisplay:10.37,2013-05-02 23:35:00,
2013-05-02 19:40:00,61.7,55.5,30.21,East,99,0.0,4.0,80,0.00,CLR,OVC,0.12,WeatherDisplay:10.37,2013-05-02 23:40:00,
2013-05-02 19:45:00,61.7,55.5,30.21,East,96,0.0,3.0,80,0.00,CLR,OVC,0.12,WeatherDisplay:10.37,2013-05-02 23:45:00,
2013-05-02 19:50:00,61.7,55.5,30.21,ENE,72,0.0,5.0,80,0.00,CLR,OVC,0.12,WeatherDisplay:10.37,2013-05-02 23:50:00,
2013-05-02 19:55:00,61.7,55.5,30.24,NE,50,0.0,7.0,80,0.00,CLR,OVC,0.12,WeatherDisplay:10.37,2013-05-02 23:55:00,
2013-05-02 20:05:00,61.5,55.3,30.24,East,85,3.0,5.0,80,0.00,CLR,OVC,0.12,WeatherDisplay:10.37,2013-05-03 00:05:00,
2013-05-02 20:15:00,61.3,55.1,30.24,North,1,0.0,7.0,80,0.00,CLR,OVC,0.12,WeatherDisplay:10.37,2013-05-03 00:15:00,
2013-05-02 20:20:00,61.2,54.9,30.24,North,360,0.0,8.0,80,0.00,CLR,OVC,0.12,WeatherDisplay:10.37,2013-05-03 00:20:00,
2013-05-02 20:25:00,61.2,54.9,30.24,NE,45,0.0,6.0,80,0.00,CLR,OVC,0.12,WeatherDisplay:10.37,2013-05-03 00:25:00,
2013-05-02 20:30:00,61.1,54.9,30.24,NE,37,0.0,5.0,80,0.00,CLR,OVC,0.12,WeatherDisplay:10.37,2013-05-03 00:30:00,
2013-05-02 20:35:00,61.0,54.8,30.24,NE,45,0.0,5.0,80,0.00,CLR,OVC,0.12,WeatherDisplay:10.37,2013-05-03 00:35:00,
2013-05-02 20:40:00,61.0,54.8,30.24,ENE,77,0.0,7.0,80,0.00,CLR,OVC,0.12,WeatherDisplay:10.37,2013-05-03 00:40:00,
2013-05-02 20:45:00,60.8,54.6,30.24,ENE,63,0.0,10.0,80,0.00,CLR,OVC,0.12,WeatherDisplay:10.37,2013-05-03 00:45:00,
2013-05-02 20:50:00,60.7,54.5,30.24,NE,50,0.0,5.0,80,0.00,CLR,OVC,0.12,WeatherDisplay:10.37,2013-05-03 00:50:00,
2013-05-02 20:55:00,60.6,54.4,30.24,ENE,61,0.0,4.0,80,0.00,CLR,OVC,0.12,WeatherDisplay:10.37,2013-05-03 00:55:00,
2013-05-02 21:00:00,60.6,54.4,30.24,NE,47,0.0,3.0,80,0.00,CLR,OVC,0.12,WeatherDisplay:10.37,2013-05-03 01:00:00,
2013-05-02 21:05:00,60.4,54.6,30.24,ENE,59,0.0,7.0,81,0.00,CLR,OVC,0.12,WeatherDisplay:10.37,2013-05-03 01:05:00,
2013-05-02 21:10:00,60.4,54.5,30.24,East,83,0.0,5.0,81,0.00,CLR,OVC,0.12,WeatherDisplay:10.37,2013-05-03 01:10:00,
2013-05-02 21:15:00,60.3,54.4,30.24,ENE,78,0.0,5.0,81,0.00,CLR,OVC,0.12,WeatherDisplay:10.37,2013-05-03 01:15:00,
2013-05-02 21:20:00,60.3,54.4,30.24,East,79,0.0,6.0,81,0.00,CLR,OVC,0.12,WeatherDisplay:10.37,2013-05-03 01:20:00,
2013-05-02 21:25:00,60.1,54.2,30.24,East,82,0.0,5.0,81,0.00,CLR,OVC,0.12,WeatherDisplay:10.37,2013-05-03 01:25:00,
2013-05-02 21:30:00,60.1,54.2,30.24,ENE,69,3.0,5.0,81,0.00,CLR,OVC,0.12,WeatherDisplay:10.37,2013-05-03 01:30:00,
2013-05-02 21:35:00,59.9,54.4,30.24,East,83,0.0,5.0,82,0.00,CLR,OVC,0.12,WeatherDisplay:10.37,2013-05-03 01:35:00,
2013-05-02 21:40:00,59.9,54.4,30.24,ENE,67,0.0,0.0,82,0.00,CLR,OVC,0.12,WeatherDisplay:10.37,2013-05-03 01:40:00,
2013-05-02 21:45:00,59.9,54.4,30.24,ENE,58,0.0,3.0,82,0.00,CLR,OVC,0.12,WeatherDisplay:10.37,2013-05-03 01:45:00,
2013-05-02 21:50:00,59.7,54.2,30.24,ENE,64,0.0,3.0,82,0.00,CLR,OVC,0.12,WeatherDisplay:10.37,2013-05-03 01:50:00,
2013-05-02 21:55:00,59.7,54.5,30.24,ENE,69,0.0,0.0,83,0.00,CLR,OVC,0.12,WeatherDisplay:10.37,2013-05-03 01:55:00,
2013-05-02 22:05:00,59.7,54.5,30.24,East,80,0.0,4.0,83,0.00,CLR,OVC,0.12,WeatherDisplay:10.37,2013-05-03 02:05:00,
2013-05-02 22:10:00,59.5,54.4,30.24,ENE,58,0.0,4.0,83,0.00,CLR,OVC,0.12,WeatherDisplay:10.37,2013-05-03 02:10:00,
2013-05-02 22:15:00,59.5,54.4,30.24,ENE,72,0.0,0.0,83,0.00,CLR,OVC,0.12,WeatherDisplay:10.37,2013-05-03 02:15:00,
2013-05-02 22:20:00,59.5,54.7,30.24,ENE,71,0.0,0.0,84,0.00,CLR,OVC,0.12,WeatherDisplay:10.37,2013-05-03 02:20:00,
2013-05-02 22:25:00,59.5,54.7,30.24,ENE,72,0.0,0.0,84,0.00,CLR,OVC,0.12,WeatherDisplay:10.37,2013-05-03 02:25:00,
2013-05-02 22:30:00,59.5,54.7,30.24,East,81,0.0,3.0,84,0.00,CLR,OVC,0.12,WeatherDisplay:10.37,2013-05-03 02:30:00,
2013-05-02 22:35:00,59.5,54.7,30.24,ENE,76,0.0,7.0,84,0.00,CLR,OVC,0.12,WeatherDisplay:10.37,2013-05-03 02:35:00,
2013-05-02 22:40:00,59.5,54.7,30.24,East,83,0.0,0.0,84,0.00,CLR,OVC,0.12,WeatherDisplay:10.37,2013-05-03 02:40:00,
2013-05-02 22:45:00,59.5,54.7,30.24,ENE,73,0.0,0.0,84,0.00,CLR,OVC,0.12,WeatherDisplay:10.37,2013-05-03 02:45:00,
2013-05-02 22:50:00,59.5,54.7,30.24,ENE,62,0.0,3.0,84,0.00,CLR,OVC,0.12,WeatherDisplay:10.37,2013-05-03 02:50:00,
2013-05-02 23:00:00,59.5,54.7,30.24,East,79,0.0,0.0,84,0.00,CLR,OVC,0.12,WeatherDisplay:10.37,2013-05-03 03:00:00,
2013-05-02 23:05:00,59.5,54.7,30.24,NE,54,0.0,0.0,84,0.00,CLR,OVC,0.12,WeatherDisplay:10.37,2013-05-03 03:05:00,
2013-05-02 23:10:00,59.5,54.7,30.24,NE,52,0.0,5.0,84,0.00,CLR,OVC,0.12,WeatherDisplay:10.37,2013-05-03 03:10:00,
2013-05-02 23:15:00,59.4,54.5,30.24,NE,52,0.0,3.0,84,0.00,CLR,OVC,0.12,WeatherDisplay:10.37,2013-05-03 03:15:00,
2013-05-02 23:20:00,59.4,54.8,30.24,NE,55,0.0,4.0,85,0.00,CLR,OVC,0.12,WeatherDisplay:10.37,2013-05-03 03:20:00,
2013-05-02 23:25:00,59.4,54.8,30.21,ENE,59,0.0,0.0,85,0.00,CLR,OVC,0.12,WeatherDisplay:10.37,2013-05-03 03:25:00,
2013-05-02 23:30:00,59.4,54.8,30.21,ENE,68,0.0,0.0,85,0.00,CLR,OVC,0.12,WeatherDisplay:10.37,2013-05-03 03:30:00,
2013-05-02 23:35:00,59.4,54.8,30.21,ENE,65,0.0,0.0,85,0.00,CLR,OVC,0.12,WeatherDisplay:10.37,2013-05-03 03:35:00,
2013-05-02 23:40:00,59.4,54.8,30.21,NE,48,0.0,0.0,85,0.00,CLR,OVC,0.12,WeatherDisplay:10.37,2013-05-03 03:40:00,
2013-05-02 23:45:00,59.4,54.8,30.21,ENE,62,0.0,0.0,85,0.00,CLR,OVC,0.12,WeatherDisplay:10.37,2013-05-03 03:45:00,
2013-05-02 23:50:00,59.4,54.8,30.21,ENE,70,0.0,3.0,85,0.00,CLR,OVC,0.12,WeatherDisplay:10.37,2013-05-03 03:50:00,
2013-05-02 23:55:00,59.4,54.8,30.21,East,82,0.0,3.0,85,0.00,CLR,OVC,0.12,WeatherDisplay:10.37,2013-05-03 03:55:00,